EW7448 Weather Reports


Display with metric or nautical units.
time (UTC)temp
F
wind
direction
speed
MPH
gust
MPH
rain 1hr
in
rain 24hr
in
rain mn
in
humidity
%
barometer
mb
20260906193027 95 146 0.0 1.0 0.00 0.23 0.00 63 1009.0
20260906191529 95 283 0.0 3.0 0.00 0.23 0.00 65 1009.4
20260906190025 96 248 0.0 1.0 0.00 0.23 0.00 65 1009.8
20260906184521 94 258 0.0 3.0 0.00 0.23 0.00 64 1009.9
20260906183019 95 278 0.0 3.0 0.00 0.23 0.00 63 1010.1
20260906181518 95 292 0.0 3.0 0.00 0.23 0.00 64 1010.2
20260906180016 94 167 0.0 4.0 0.00 0.23 0.00 67 1010.2
20260906174510 94 144 0.0 3.0 0.00 0.23 0.00 68 1010.3
20260906173008 94 269 0.0 2.0 0.00 0.23 0.00 69 1010.3
20260906171507 92 352 0.0 3.0 0.00 0.23 0.00 71 1010.4
20260906170003 92 279 0.0 4.0 0.00 0.23 0.00 72 1010.5
20260906164609 92 269 0.0 3.0 0.00 0.23 0.00 72 1010.7
20260906163108 92 65 0.0 4.0 0.00 0.23 0.00 76 1010.8
20260906161557 91 250 0.0 5.0 0.00 0.23 0.00 77 1011.0
20260906154559 90 266 0.0 2.0 0.00 0.23 0.00 79 1011.4
20260906153053 90 274 0.0 3.0 0.00 0.23 0.00 81 1011.6
20260906151551 89 298 0.0 2.0 0.00 0.23 0.00 82 1011.7
20260906150048 88 278 0.0 2.0 0.00 0.23 0.00 82 1011.7
20260906144545 87 24 0.0 3.0 0.00 0.23 0.00 84 1011.8
20260906143042 87 133 0.0 2.0 0.00 0.23 0.00 86 1011.7
20260906141539 85 279 0.0 4.0 0.00 0.23 0.00 87 1011.5
20260906140034 84 282 0.0 2.0 0.00 0.23 0.00 89 1011.6
20260906134531 83 261 0.0 2.0 0.00 0.23 0.00 90 1011.7
20260906133029 82 259 0.0 3.0 0.00 0.23 0.00 92 1011.7
20260906131532 80 267 0.0 3.0 0.00 0.23 0.00 94 1011.8
20260906130017 79 219 0.0 4.0 0.00 0.23 0.00 95 1011.9
20260906124512 77 256 0.0 4.0 0.00 0.23 0.00 97 1011.8
20260906123009 76 147 0.0 2.0 0.00 0.23 0.00 98 1011.6
20260906121507 75 195 0.0 1.0 0.00 0.23 0.00 98 1011.5
20260906120005 75 245 0.0 1.0 0.00 0.23 0.00 98 1011.3
20260906114503 74 245 0.0 1.0 0.00 0.23 0.00 98 1011.2
20260906113003 74 245 0.0 1.0 0.00 0.23 0.00 98 1011.0
20260906111503 74 245 0.0 1.0 0.00 0.23 0.00 98 1010.9
20260906110002 74 245 0.0 1.0 0.00 0.23 0.00 98 1010.7
20260906104503 74 245 0.0 1.0 0.00 0.23 0.00 98 1010.5
20260906103001 74 245 0.0 1.0 0.00 0.23 0.00 98 1010.2
20260906101601 74 245 0.0 1.0 0.00 0.23 0.00 98 1010.0
20260906094602 74 245 0.0 0.0 0.00 0.23 0.00 98 1009.5
20260906093058 74 245 0.0 0.0 0.00 0.23 0.00 98 1009.3
20260906091605 74 245 0.0 0.0 0.00 0.23 0.00 98 1009.2
20260906090059 74 245 0.0 0.0 0.00 0.23 0.00 98 1009.1
20260906084557 74 245 0.0 1.0 0.00 0.23 0.00 98 1009.1
20260906083100 74 245 0.0 1.0 0.00 0.23 0.00 98 1009.2
20260906081558 74 245 0.0 0.0 0.00 0.23 0.00 97 1009.4
20260906080107 74 245 0.0 0.0 0.00 0.23 0.00 97 1009.3
20260906074556 73 245 0.0 1.0 0.00 0.23 0.00 97 1009.3
20260906073052 74 245 0.0 0.0 0.00 0.23 0.00 97 1009.4
20260906071600 74 245 0.0 1.0 0.00 0.23 0.00 96 1009.6
20260906070049 74 245 0.0 1.0 0.00 0.23 0.00 96 1009.8
20260906064547 74 245 0.0 1.0 0.00 0.23 0.00 96 1010.0
20260906063048 74 245 0.0 1.0 0.00 0.23 0.00 96 1010.3
20260906061544 74 226 0.0 1.0 0.00 0.23 0.00 96 1010.5
20260906060042 74 198 0.0 1.0 0.00 0.23 0.00 96 1010.7
20260906054541 74 157 0.0 0.0 0.00 0.23 0.00 96 1010.9
20260906053044 74 156 0.0 0.0 0.00 0.23 0.00 96 1011.1
20260906051537 74 156 0.0 1.0 0.00 0.23 0.00 97 1011.2
20260906050036 74 196 0.0 3.0 0.00 0.23 0.00 97 1011.2
20260906044535 74 186 0.0 3.0 0.00 0.23 0.00 97 1011.2
20260906043034 75 153 0.0 1.0 0.00 0.23 0.00 98 1011.3
20260906041532 74 163 0.0 0.0 0.00 0.23 0.00 98 1011.4
20260906040036 74 162 0.0 0.0 0.00 0.23 0.00 97 1011.4
20260906034536 74 163 0.0 2.0 0.00 0.23 0.23 97 1011.3
20260906033031 75 210 0.0 3.0 0.00 0.23 0.23 97 1011.1
20260906031528 75 193 0.0 3.0 0.01 0.23 0.23 97 1011.0
20260906030029 75 169 0.0 1.0 0.01 0.23 0.23 97 1011.1
20260906024527 75 229 0.0 0.0 0.01 0.24 0.23 97 1011.3
20260906023026 75 229 0.0 2.0 0.01 0.24 0.23 97 1011.6
20260906021527 75 240 0.0 1.0 0.01 0.23 0.22 97 1011.6
20260906020027 75 230 0.0 1.0 0.01 0.23 0.22 97 1011.5
20260906014538 75 208 0.0 2.0 0.01 0.23 0.22 96 1011.4
20260906013024 75 209 0.0 4.0 0.02 0.23 0.22 96 1011.4
20260906011534 76 220 0.0 4.0 0.01 0.22 0.21 96 1011.4
20260906010022 76 122 0.0 4.0 0.02 0.22 0.21 96 1011.5
20260906004534 76 116 0.0 2.0 0.02 0.22 0.21 95 1011.8
20260906003032 76 177 1.0 4.0 0.01 0.21 0.20 93 1011.8
20260906001520 77 130 0.0 1.0 0.01 0.21 0.20 91 1011.4
20260906000020 77 359 0.0 0.0 0.00 0.20 0.19 88 1011.3
20260905234520 78 359 0.0 2.0 0.00 0.22 0.19 88 1011.2
20260905233020 79 15 0.0 11.0 0.00 0.22 0.19 87 1011.8
20260905231518 80 286 5.0 11.0 0.00 0.22 0.19 88 1011.9
20260905230019 80 152 0.0 2.0 0.00 0.22 0.19 91 1010.8
20260905224526 81 112 0.0 5.0 0.00 0.22 0.19 90 1010.8
20260905223017 81 127 0.0 3.0 0.00 0.22 0.19 89 1011.1
20260905221515 81 143 0.0 3.0 0.00 0.22 0.19 88 1010.3
20260905220021 80 93 0.0 2.0 0.00 0.22 0.19 90 1009.8
20260905214512 79 162 0.0 3.0 0.00 0.22 0.19 91 1010.1
20260905213028 79 89 1.0 4.0 0.00 0.22 0.19 92 1010.4
20260905211511 79 49 1.0 6.0 0.00 0.22 0.19 92 1010.5
20260905210013 79 14 4.0 12.0 0.00 0.22 0.19 91 1011.4
20260905204512 80 15 4.0 8.0 0.16 0.22 0.19 89 1011.7
20260905203009 82 113 1.0 7.0 0.19 0.22 0.19 90 1010.8
20260905201508 84 345 4.0 11.0 0.19 0.22 0.19 90 1010.7
20260905200009 84 152 0.0 4.0 0.19 0.22 0.19 87 1010.4
20260905194506 88 233 1.0 6.0 0.01 0.04 0.01 80 1010.5